Showing default

MAROC TUBSAT, 27004

Orbit data source: Space-Track

MAROC TUBSAT, 27004 is a payload satellite owned by CRTS (DE) in SSO that was launched on Mon, 10 Dec 2001 UTC via a ZENIT-2 launch vehicle from the Tyuratam Missile And Space Complex (TTMTR). Payload-class satellites include a variety of spacecraft equipped with specific instruments for various scientific and technological missions. These include communications satellites like Starlink; space stations such as the ISS; scientific satellites like the Hubble; Earth observation satellites from companies like Planet Labs, Umbra, and HawkEye 360; GPS; miniature CubeSats for education and research; and military/defense satellites.

Loading next visibility...
Identifier
27004, 2001-056D
Orbit
SSO
Country
Flag of DEDE / GER
Related business
Manufacturer
TUB
Mission
Operational Civil Imaging
Bus & Motor
TUBSAT, Unknown motor
Mass
45 kg wet, 45 kg dry
Launch date (UTC)
2001-12-10 (24 years ago)
Launch vehicle
ZENIT-2
Launch site
Tyuratam Missile And Space Complex (TTMTR)
Object type
Payload
Rocket body
Debris
Shape & HBR
Box, 0.2 m
Radar Cross Section
0.200 m², Medium (>0.1 m² and < 1m²)

Expand to show TLE details & history
Last TLE update: 1 day ago

TLE from 1 day ago
0 MAROC TUBSAT
1 27004U 01056D   25260.95198855 -.00000011  00000-0  40016-4 0  9998
2 27004  99.7888  67.9083 0020515 119.2278 357.4539 13.70247126188905
Epoch: 2025-09-17T22:50Z
TLE epoch observation values (Epoch: 2025-09-17T22:50:51.81Z)
Latitude
61.80642°
Longitude
-73.25428°
Altitude
994.062 km
Speed
7.368 km/s
True Right ascension
17h 46m 19s
True Declination
61° 40' 03"
Sunlit
Object was in daylight at epoch
Visualization orbit readout
Latitude
Unknown
Longitude
Unknown
Altitude
Unknown
Speed
Unknown
Apparent Right ascension
Unknown
Apparent Declination
Unknown
Sunlit
N/A
Visualization observer readout
Local Sidereal Time
17:18:22
Azimuth
Unknown
Elevation
Unknown
Doppler factor
Unknown
Orbital elements
Apogee altitude
1,011.091 km
Perigee altitude
980.835 km
Semi-major axis
7,374.1 km
Eccentricity
0.00205
Inclination
99.7888°
RAAN
67.9083°
Arg. of periapsis
119.2278°
True anomaly
357.44343°
Mean anomaly
357.4539°
Eccentric anomaly
357.44867°
Mean motion
3.42752 °/min
Orbital period
105.03 mins
BSTAR
0.000040016
Loading maneuver chart data...
Computing Atmospheric mass density...
Loading historical data...
Loading historical data...
Loading historical data...
Loading historical data...
Loading historical data...
Loading historical data...
Loading historical data...

Documentation

Showing up to 5 results
|